Luke Air Force Base, AZ

6:02 PM MST on September 30, 2016 (GMT -0700)
Luke Air Force Base

Weather History for KLUF - May, 2013

Change the Weather History Date:

Friday, May 10, 2013

  Actual Average Record
Temperature  
Mean Temperature 77 °F -  
Max Temperature 92 °F 93 °F 113 °F (1934)
Min Temperature 62 °F 57 °F 42 °F (1922)
Cooling Degree Days 12    
Growing Degree Days 27 (Base 50)    
Moisture  
Dew Point 36 °F    
Average Humidity 22    
Maximum Humidity 44    
Minimum Humidity 10    
Precipitation  
Precipitation 0.00 in - - ()
Sea Level Pressure  
Sea Level Pressure 29.92 in    
Wind  
Wind Speed 7 mph (West)    
Max Wind Speed 22 mph    
Max Gust Speed 32 mph    
Visibility 10 miles    
Events      
Averages and records for this station are not official NWS values.
T = Trace of Precipitation, MM = Missing Value Source: NWS Daily Summary

Daily Weather History Graph

Daily Weather History Graph

Search for Another Location

Airport or City:

Trip Planner

Search our weather history database for the weather conditions in past years. The results will help you decide how hot, cold, wet, or windy it might be!

Date:

Astronomy

May. 10, 2013 Rise Set
Actual Time 5:32 AM MST 7:19 PM MST
Civil Twilight 5:05 AM MST 7:46 PM MST
Nautical Twilight 4:32 AM MST 8:19 PM MST
Astronomical Twilight 3:58 AM MST 8:54 PM MST
Moon 6:00 AM MST (5/10) 8:11 PM MST (5/10)
Length of Visible Light 14h 41m
Length of Day
13h 46m
New Moon, 1% of the Moon is Illuminated
May 10
New Moon
May 17
First Quarter
May 24
Full
May 31
Last Quarter
Jun 8
New

Hourly Weather History & Observations

Time (MST) Temp. Dew Point Humidity Pressure Visibility Wind Dir Wind Speed Gust Speed Precip Events Conditions
12:58 AM 69.6 °F 38.8 °F 33% 29.89 in 10.0 mi NE 5.8 mph - N/A   Clear
1:58 AM 70.5 °F 37.9 °F 30% 29.89 in 10.0 mi South 2.3 mph - N/A   Clear
2:58 AM 66.7 °F 38.8 °F 36% 29.89 in 10.0 mi West 5.8 mph - N/A   Clear
3:58 AM 62.6 °F 40.1 °F 44% 29.90 in 10.0 mi WNW 5.8 mph - N/A   Clear
4:58 AM 62.1 °F 39.7 °F 44% 29.90 in 10.0 mi NNW 8.1 mph - N/A   Clear
5:58 AM 62.4 °F 38.5 °F 41% 29.94 in 10.0 mi NW 4.6 mph - N/A   Clear
6:58 AM 66.2 °F 40.8 °F 40% 29.94 in 10.0 mi West 3.5 mph - N/A   Clear
7:58 AM 72.9 °F 37.4 °F 28% 29.95 in 10.0 mi Calm Calm - N/A   Clear
8:58 AM 79.2 °F 39.9 °F 25% 29.96 in 10.0 mi NNE 2.3 mph - N/A   Clear
9:58 AM 80.8 °F 40.1 °F 23% 29.95 in 10.0 mi South 3.5 mph - N/A   Clear
10:58 AM 84.0 °F 39.4 °F 21% 29.95 in 10.0 mi West 2.3 mph - N/A   Clear
11:58 AM 85.8 °F 39.6 °F 19% 29.93 in 10.0 mi Variable 5.8 mph - N/A   Clear
12:58 PM 88.2 °F 36.5 °F 16% 29.91 in 10.0 mi Variable 2.3 mph - N/A   Clear
1:58 PM 90.1 °F 31.6 °F 12% 29.89 in 10.0 mi Variable 3.5 mph - N/A   Clear
2:58 PM 91.2 °F 30.4 °F 11% 29.87 in 10.0 mi Variable 3.5 mph - N/A   Clear
3:58 PM 91.8 °F 28.4 °F 10% 29.85 in 10.0 mi WNW 5.8 mph - N/A   Clear
4:58 PM 92.3 °F 28.9 °F 10% 29.84 in 10.0 mi SW 9.2 mph - N/A   Clear
5:58 PM 91.0 °F 32.4 °F 12% 29.85 in 10.0 mi South 10.4 mph - N/A   Clear
6:58 PM 90.0 °F 29.3 °F 11% 29.86 in 10.0 mi SSW 11.5 mph - N/A   Scattered Clouds
7:58 PM 86.7 °F 33.6 °F 15% 29.88 in 10.0 mi SSW 10.4 mph - N/A   Clear
8:58 PM 83.3 °F 38.5 °F 20% 29.93 in 10.0 mi NNE 11.5 mph - N/A   Overcast
9:08 PM 82.4 °F 35.6 °F 19% 29.97 in 10.0 mi North 13.8 mph - N/A   Mostly Cloudy
9:10 PM 84.2 °F 35.6 °F 18% 29.97 in 10.0 mi NW 21.9 mph 23.0 mph N/A   Mostly Cloudy
9:11 PM 84.2 °F 33.8 °F 16% 29.96 in 10.0 mi WNW 20.7 mph 32.2 mph N/A   Mostly Cloudy
9:12 PM 84.2 °F 33.8 °F 16% 29.96 in 10.0 mi WNW 20.7 mph 32.2 mph N/A   Mostly Cloudy
9:13 PM 84.2 °F 32.0 °F 15% 29.97 in 10.0 mi WSW 17.3 mph 32.2 mph N/A   Mostly Cloudy
9:14 PM 84.2 °F 32.0 °F 15% 29.98 in 10.0 mi SW 15.0 mph 32.2 mph N/A   Mostly Cloudy
9:58 PM 86.2 °F 35.6 °F 16% 29.94 in 10.0 mi ESE 6.9 mph - N/A   Partly Cloudy
10:58 PM 84.2 °F 35.4 °F 17% 29.94 in 10.0 mi Calm Calm - N/A   Mostly Cloudy
11:58 PM 80.6 °F 36.5 °F 21% 29.94 in 10.0 mi East 8.1 mph - N/A   Clear